ENY4089 KBHM-KDFW

Flight info

Callsign ENY4089
Flight time 1h 46m
Altitude 28000
Route JOEYE IGB SQS YUYUN BEREE3
Aircraft E170/M-SDE3GILORVW/S

Departure

Time 2026-05-05 04:25
Airport Birmingham-Shuttlesworth International Airport (KBHM)

Arrival

Time 2026-05-05 06:12
Airport Dallas Fort Worth International Airport (KDFW)
Time Latitude Longitude Altitude Speed Heading
2026-05-05 04:03 33.56082 -86.75359 613 ft 0 kts
2026-05-05 04:14 33.56083 -86.75359 612 ft 0 kts
2026-05-05 04:14 33.56081 -86.75359 612 ft 1 kts
2026-05-05 04:14 33.56066 -86.75360 612 ft 2 kts
2026-05-05 04:15 33.56051 -86.75360 612 ft 2 kts
2026-05-05 04:15 33.56036 -86.75360 611 ft 2 kts
2026-05-05 04:15 33.56022 -86.75361 611 ft 1 kts
2026-05-05 04:15 33.56023 -86.75361 611 ft 1 kts 347°
2026-05-05 04:16 33.56027 -86.75369 611 ft 1 kts 266°
2026-05-05 04:16 33.56026 -86.75396 611 ft 1 kts 271°
2026-05-05 04:16 33.56026 -86.75399 611 ft 0 kts 271°
2026-05-05 04:19 33.56026 -86.75411 611 ft 5 kts 271°
2026-05-05 04:19 33.56026 -86.75480 611 ft 9 kts 270°
2026-05-05 04:19 33.56035 -86.75558 611 ft 9 kts 298°
2026-05-05 04:20 33.56088 -86.75610 611 ft 10 kts 326°
2026-05-05 04:20 33.56148 -86.75662 611 ft 10 kts 325°
2026-05-05 04:20 33.56182 -86.75726 613 ft 9 kts 258°
2026-05-05 04:20 33.56144 -86.75798 614 ft 11 kts 236°
2026-05-05 04:21 33.56096 -86.75884 615 ft 12 kts 235°
2026-05-05 04:21 33.56037 -86.75985 615 ft 16 kts 235°
2026-05-05 04:21 33.55962 -86.76116 615 ft 20 kts 236°
2026-05-05 04:21 33.55872 -86.76270 615 ft 23 kts 235°
2026-05-05 04:22 33.55776 -86.76437 612 ft 25 kts 235°
2026-05-05 04:22 33.55675 -86.76615 611 ft 26 kts 235°
2026-05-05 04:22 33.55571 -86.76795 609 ft 26 kts 233°
2026-05-05 04:22 33.55476 -86.76959 608 ft 19 kts 235°
2026-05-05 04:23 33.55423 -86.77063 605 ft 7 kts 260°
2026-05-05 04:23 33.55422 -86.77065 605 ft 0 kts 264°
2026-05-05 04:24 33.55431 -86.77096 605 ft 9 kts 309°
2026-05-05 04:24 33.55508 -86.77111 608 ft 16 kts 52°
2026-05-05 04:25 33.56044 -86.76173 621 ft 129 kts 55°
2026-05-05 04:25 33.56644 -86.75131 718 ft 166 kts 54°
2026-05-05 04:25 33.57467 -86.74180 1304 ft 169 kts 28°
2026-05-05 04:25 33.58617 -86.73727 1773 ft 181 kts
2026-05-05 04:26 33.59884 -86.73743 2320 ft 184 kts 346°
2026-05-05 04:26 33.61155 -86.73925 2887 ft 188 kts 341°
2026-05-05 04:26 33.62302 -86.74709 3369 ft 192 kts 315°
2026-05-05 04:26 33.63214 -86.75794 4087 ft 183 kts 292°
2026-05-05 04:27 33.63365 -86.77141 4622 ft 164 kts 246°
2026-05-05 04:27 33.62713 -86.78233 5137 ft 167 kts 225°
2026-05-05 04:27 33.61931 -86.79341 5584 ft 182 kts 234°
2026-05-05 04:27 33.61260 -86.80701 6002 ft 199 kts 241°
2026-05-05 04:28 33.60653 -86.82331 6156 ft 227 kts 246°
2026-05-05 04:28 33.60098 -86.84209 6351 ft 252 kts 250°
2026-05-05 04:28 33.59571 -86.86297 6762 ft 268 kts 252°
2026-05-05 04:28 33.59072 -86.88466 7398 ft 273 kts 253°
2026-05-05 04:29 33.58592 -86.90647 8123 ft 273 kts 254°
2026-05-05 04:29 33.58120 -86.92838 8827 ft 272 kts 255°
2026-05-05 04:29 33.57658 -86.95013 9418 ft 275 kts 255°
2026-05-05 04:29 33.57184 -86.97250 10048 ft 277 kts 255°
2026-05-05 04:30 33.56712 -86.99482 10582 ft 282 kts 255°
2026-05-05 04:30 33.56227 -87.01772 11062 ft 288 kts 256°
2026-05-05 04:30 33.55726 -87.04140 11467 ft 297 kts 256°
2026-05-05 04:30 33.55207 -87.06593 11882 ft 305 kts 256°
2026-05-05 04:31 33.54683 -87.09064 12331 ft 311 kts 256°
2026-05-05 04:31 33.54147 -87.11593 12843 ft 314 kts 256°
2026-05-05 04:31 33.53607 -87.14134 13358 ft 317 kts 256°
2026-05-05 04:31 33.53064 -87.16685 13829 ft 321 kts 257°
2026-05-05 04:32 33.52513 -87.19278 14367 ft 322 kts 257°
2026-05-05 04:32 33.51962 -87.21860 14904 ft 323 kts 257°
2026-05-05 04:32 33.51405 -87.24476 15405 ft 324 kts 257°
2026-05-05 04:32 33.50843 -87.27101 15849 ft 327 kts 258°
2026-05-05 04:33 33.50281 -87.29730 16334 ft 329 kts 258°
2026-05-05 04:33 33.49717 -87.32365 16808 ft 330 kts 258°
2026-05-05 04:33 33.49295 -87.35046 17187 ft 331 kts 270°
2026-05-05 04:33 33.49272 -87.37798 17615 ft 332 kts 272°
2026-05-05 04:34 33.49266 -87.40562 18059 ft 334 kts 272°
2026-05-05 04:34 33.49260 -87.43368 18516 ft 335 kts 272°
2026-05-05 04:34 33.49253 -87.46130 19001 ft 335 kts 272°
2026-05-05 04:34 33.49247 -87.48909 19487 ft 334 kts 272°
2026-05-05 04:35 33.49239 -87.51696 19915 ft 335 kts 272°
2026-05-05 04:35 33.49230 -87.54494 20304 ft 338 kts 272°
2026-05-05 04:35 33.49221 -87.57310 20687 ft 340 kts 272°
2026-05-05 04:35 33.49211 -87.60132 21157 ft 339 kts 272°
2026-05-05 04:36 33.49201 -87.62933 21555 ft 340 kts 272°
2026-05-05 04:36 33.49190 -87.65757 22013 ft 339 kts 271°
2026-05-05 04:36 33.49178 -87.68597 22354 ft 341 kts 272°
2026-05-05 04:36 33.49166 -87.71435 22705 ft 343 kts 272°
2026-05-05 04:37 33.49152 -87.74300 23115 ft 343 kts 272°
2026-05-05 04:37 33.49139 -87.77130 23480 ft 344 kts 272°
2026-05-05 04:37 33.49124 -87.79985 23876 ft 343 kts 272°
2026-05-05 04:37 33.49109 -87.82830 24274 ft 343 kts 272°
2026-05-05 04:38 33.49093 -87.85693 24590 ft 344 kts 272°
2026-05-05 04:38 33.49077 -87.88562 24913 ft 345 kts 273°
2026-05-05 04:38 33.49060 -87.91421 25212 ft 347 kts 273°
2026-05-05 04:38 33.49042 -87.94305 25554 ft 346 kts 273°
2026-05-05 04:39 33.49023 -87.97160 25923 ft 346 kts 274°
2026-05-05 04:39 33.49004 -88.00045 26201 ft 347 kts 274°
2026-05-05 04:39 33.48985 -88.02930 26522 ft 347 kts 273°
2026-05-05 04:39 33.48963 -88.05813 26846 ft 347 kts 274°
2026-05-05 04:40 33.48941 -88.08716 27146 ft 347 kts 274°
2026-05-05 04:40 33.48920 -88.11571 27459 ft 346 kts 274°
2026-05-05 04:40 33.48898 -88.14441 27706 ft 347 kts 275°
2026-05-05 04:40 33.48875 -88.17331 27939 ft 348 kts 275°
2026-05-05 04:41 33.48851 -88.20262 27960 ft 355 kts 274°
2026-05-05 04:41 33.48826 -88.23260 27969 ft 361 kts 275°
2026-05-05 04:41 33.48799 -88.26292 27969 ft 367 kts 275°
2026-05-05 04:41 33.48772 -88.29360 27975 ft 372 kts 275°
2026-05-05 04:42 33.48742 -88.32463 27965 ft 374 kts 274°
2026-05-05 04:42 33.48712 -88.35586 27964 ft 375 kts 274°
2026-05-05 04:42 33.48682 -88.38671 27968 ft 376 kts 274°
2026-05-05 04:42 33.48650 -88.41828 27956 ft 377 kts 275°
2026-05-05 04:43 33.48618 -88.44942 27967 ft 374 kts 274°
2026-05-05 04:43 33.48585 -88.48059 27959 ft 376 kts 275°
2026-05-05 04:43 33.48552 -88.51132 27964 ft 372 kts 275°
2026-05-05 04:43 33.48534 -88.54230 27964 ft 372 kts 275°
2026-05-05 04:44 33.48517 -88.57340 27963 ft 372 kts 275°
2026-05-05 04:44 33.48500 -88.60435 27961 ft 371 kts 275°
2026-05-05 04:44 33.48481 -88.63568 27961 ft 373 kts 275°
2026-05-05 04:44 33.48461 -88.66669 27971 ft 373 kts 274°
2026-05-05 04:45 33.48441 -88.69779 27970 ft 373 kts 274°
2026-05-05 04:45 33.48420 -88.72862 27975 ft 371 kts 274°
2026-05-05 04:45 33.48397 -88.75970 27976 ft 370 kts 275°
2026-05-05 04:45 33.48376 -88.79039 27973 ft 370 kts 274°
2026-05-05 04:46 33.48352 -88.82130 27974 ft 374 kts 275°
2026-05-05 04:46 33.48328 -88.85239 27972 ft 372 kts 275°
2026-05-05 04:46 33.48303 -88.88331 27971 ft 369 kts 275°
2026-05-05 04:46 33.48278 -88.91404 27971 ft 370 kts 275°
2026-05-05 04:47 33.48251 -88.94519 27969 ft 372 kts 275°
2026-05-05 04:47 33.48224 -88.97623 27971 ft 373 kts 275°
2026-05-05 04:47 33.48196 -89.00703 27959 ft 369 kts 275°
2026-05-05 04:47 33.48168 -89.03756 27963 ft 369 kts 275°
2026-05-05 04:48 33.48138 -89.06840 27958 ft 368 kts 275°
2026-05-05 04:48 33.48108 -89.09950 27956 ft 371 kts 275°
2026-05-05 04:48 33.48078 -89.13009 27953 ft 371 kts 275°
2026-05-05 04:48 33.48046 -89.16091 27958 ft 369 kts 275°
2026-05-05 04:49 33.48014 -89.19177 27959 ft 370 kts 275°
2026-05-05 04:49 33.47980 -89.22262 27951 ft 371 kts 275°
2026-05-05 04:49 33.47946 -89.25320 27953 ft 371 kts 275°
2026-05-05 04:49 33.47912 -89.28426 27955 ft 371 kts 275°
2026-05-05 04:50 33.47876 -89.31488 27953 ft 371 kts 275°
2026-05-05 04:50 33.47840 -89.34585 27949 ft 369 kts 275°
2026-05-05 04:50 33.47803 -89.37658 27954 ft 372 kts 275°
2026-05-05 04:50 33.47765 -89.40721 27950 ft 371 kts 275°
2026-05-05 04:51 33.47728 -89.43823 27953 ft 372 kts 275°
2026-05-05 04:51 33.47688 -89.46925 27952 ft 369 kts 275°
2026-05-05 04:51 33.47648 -89.49996 27948 ft 371 kts 275°
2026-05-05 04:51 33.47607 -89.53079 27949 ft 372 kts 275°
2026-05-05 04:52 33.47566 -89.56184 27951 ft 372 kts 275°
2026-05-05 04:52 33.47522 -89.59307 27949 ft 371 kts 275°
2026-05-05 04:52 33.47479 -89.62357 27951 ft 372 kts 275°
2026-05-05 04:52 33.47435 -89.65486 27951 ft 373 kts 275°
2026-05-05 04:53 33.47391 -89.68564 27958 ft 370 kts 274°
2026-05-05 04:53 33.47345 -89.71643 27960 ft 372 kts 274°
2026-05-05 04:53 33.47299 -89.74741 27953 ft 370 kts 274°
2026-05-05 04:53 33.47252 -89.77827 27956 ft 371 kts 274°
2026-05-05 04:54 33.47205 -89.80913 27956 ft 370 kts 274°
2026-05-05 04:54 33.47156 -89.84006 27947 ft 372 kts 275°
2026-05-05 04:54 33.47107 -89.87055 27950 ft 371 kts 275°
2026-05-05 04:54 33.47057 -89.90124 27950 ft 370 kts 274°
2026-05-05 04:55 33.47006 -89.93231 27951 ft 370 kts 274°
2026-05-05 04:55 33.46955 -89.96307 27951 ft 371 kts 274°
2026-05-05 04:55 33.46903 -89.99385 27951 ft 369 kts 274°
2026-05-05 04:55 33.46849 -90.02474 27947 ft 372 kts 275°
2026-05-05 04:56 33.46796 -90.05531 27953 ft 370 kts 274°
2026-05-05 04:56 33.46742 -90.08605 27949 ft 371 kts 275°
2026-05-05 04:56 33.46686 -90.11721 27943 ft 368 kts 275°
2026-05-05 04:56 33.46630 -90.14768 27943 ft 371 kts 275°
2026-05-05 04:57 33.46574 -90.17855 27938 ft 368 kts 274°
2026-05-05 04:57 33.46516 -90.20949 27943 ft 370 kts 275°
2026-05-05 04:57 33.46458 -90.23994 27932 ft 370 kts 275°
2026-05-05 04:57 33.46232 -90.27116 27931 ft 380 kts 266°
2026-05-05 04:58 33.45518 -90.30147 27929 ft 387 kts 257°
2026-05-05 04:58 33.44411 -90.33127 27934 ft 390 kts 255°
2026-05-05 04:58 33.43304 -90.36079 27922 ft 389 kts 255°
2026-05-05 04:58 33.42197 -90.39054 27926 ft 389 kts 255°
2026-05-05 04:59 33.41100 -90.42010 27923 ft 391 kts 255°
2026-05-05 04:59 33.40000 -90.44973 27928 ft 388 kts 255°
2026-05-05 04:59 33.38911 -90.47906 27915 ft 388 kts 255°
2026-05-05 04:59 33.37814 -90.50858 27922 ft 389 kts 255°
2026-05-05 05:00 33.36717 -90.53805 27927 ft 391 kts 255°
2026-05-05 05:00 33.35617 -90.56758 27912 ft 387 kts 255°
2026-05-05 05:00 33.34509 -90.59732 27923 ft 391 kts 256°
2026-05-05 05:00 33.33406 -90.62690 27920 ft 393 kts 256°
2026-05-05 05:01 33.32297 -90.65659 27918 ft 392 kts 255°
2026-05-05 05:01 33.31187 -90.68632 27932 ft 394 kts 255°
2026-05-05 05:01 33.30068 -90.71622 27932 ft 390 kts 255°
2026-05-05 05:01 33.28962 -90.74576 27933 ft 390 kts 255°
2026-05-05 05:02 33.27854 -90.77535 27934 ft 389 kts 255°
2026-05-05 05:02 33.26734 -90.80519 27931 ft 391 kts 255°
2026-05-05 05:02 33.25625 -90.83475 27931 ft 389 kts 255°
2026-05-05 05:02 33.24522 -90.86414 27931 ft 392 kts 255°
2026-05-05 05:03 33.23403 -90.89387 27924 ft 391 kts 255°
2026-05-05 05:03 33.22303 -90.92313 27926 ft 390 kts 255°
2026-05-05 05:03 33.21189 -90.95269 27927 ft 391 kts 255°
2026-05-05 05:03 33.20058 -90.98269 27930 ft 390 kts 255°
2026-05-05 05:04 33.18944 -91.01221 27925 ft 390 kts 255°
2026-05-05 05:04 33.17824 -91.04186 27925 ft 390 kts 254°
2026-05-05 05:04 33.16716 -91.07117 27921 ft 390 kts 255°
2026-05-05 05:04 33.15600 -91.10068 27921 ft 390 kts 255°
2026-05-05 05:05 33.14487 -91.13007 27931 ft 387 kts 255°
2026-05-05 05:05 33.13383 -91.15921 27923 ft 389 kts 254°
2026-05-05 05:05 33.12251 -91.18906 27927 ft 392 kts 255°
2026-05-05 05:05 33.11130 -91.21859 27919 ft 393 kts 255°
2026-05-05 05:06 33.10008 -91.24810 27914 ft 392 kts 255°
2026-05-05 05:06 33.08887 -91.27756 27915 ft 387 kts 255°
2026-05-05 05:06 33.07777 -91.30672 27905 ft 386 kts 255°
2026-05-05 05:06 33.06662 -91.33604 27924 ft 392 kts 255°
2026-05-05 05:07 33.05528 -91.36577 27919 ft 393 kts 255°
2026-05-05 05:07 33.04398 -91.39535 27912 ft 393 kts 255°
2026-05-05 05:07 33.03275 -91.42476 27909 ft 392 kts 255°
2026-05-05 05:07 33.02147 -91.45425 27913 ft 391 kts 255°
2026-05-05 05:08 33.01021 -91.48367 27915 ft 388 kts 255°
2026-05-05 05:08 32.99890 -91.51321 27918 ft 391 kts 255°
2026-05-05 05:08 32.98761 -91.54266 27915 ft 389 kts 255°
2026-05-05 05:08 32.97637 -91.57197 27913 ft 391 kts 255°
2026-05-05 05:09 32.96511 -91.60130 27906 ft 390 kts 255°
2026-05-05 05:09 32.95382 -91.63068 27917 ft 392 kts 255°
2026-05-05 05:09 32.94239 -91.66040 27915 ft 392 kts 254°
2026-05-05 05:09 32.93111 -91.68971 27922 ft 392 kts 254°
2026-05-05 05:10 32.91970 -91.71929 27918 ft 391 kts 255°
2026-05-05 05:10 32.90845 -91.74847 27921 ft 390 kts 254°
2026-05-05 05:10 32.89714 -91.77779 27923 ft 392 kts 254°
2026-05-05 05:10 32.88633 -91.80578 27920 ft 393 kts 254°
2026-05-05 05:11 32.87527 -91.83437 27916 ft 392 kts 255°
2026-05-05 05:11 32.86395 -91.86362 27910 ft 390 kts 254°
2026-05-05 05:11 32.85267 -91.89275 27914 ft 389 kts 255°
2026-05-05 05:11 32.84115 -91.92249 27915 ft 392 kts 255°
2026-05-05 05:12 32.82971 -91.95197 27921 ft 392 kts 254°
2026-05-05 05:12 32.81833 -91.98126 27910 ft 391 kts 254°
2026-05-05 05:12 32.80692 -92.01063 27914 ft 389 kts 255°
2026-05-05 05:12 32.79558 -92.03979 27908 ft 391 kts 255°
2026-05-05 05:13 32.78416 -92.06915 27913 ft 391 kts 255°
2026-05-05 05:13 32.77294 -92.09793 27906 ft 393 kts 254°
2026-05-05 05:13 32.76124 -92.12792 27913 ft 390 kts 254°
2026-05-05 05:13 32.74984 -92.15714 27901 ft 391 kts 254°
2026-05-05 05:14 32.73833 -92.18660 27899 ft 390 kts 255°
2026-05-05 05:14 32.72694 -92.21576 27913 ft 394 kts 255°
2026-05-05 05:14 32.71541 -92.24522 27901 ft 394 kts 254°
2026-05-05 05:14 32.70404 -92.27425 27903 ft 390 kts 254°
2026-05-05 05:15 32.69256 -92.30352 27901 ft 390 kts 254°
2026-05-05 05:15 32.68114 -92.33265 27897 ft 389 kts 254°
2026-05-05 05:15 32.66964 -92.36195 27903 ft 390 kts 254°
2026-05-05 05:15 32.65816 -92.39116 27900 ft 394 kts 255°
2026-05-05 05:16 32.64663 -92.42049 27899 ft 392 kts 254°
2026-05-05 05:16 32.63520 -92.44952 27899 ft 389 kts 254°
2026-05-05 05:16 32.62359 -92.47900 27903 ft 393 kts 254°
2026-05-05 05:16 32.61217 -92.50796 27905 ft 392 kts 254°
2026-05-05 05:17 32.60057 -92.53735 27901 ft 391 kts 254°
2026-05-05 05:17 32.58908 -92.56645 27898 ft 390 kts 254°
2026-05-05 05:17 32.57746 -92.59583 27909 ft 391 kts 254°
2026-05-05 05:17 32.56595 -92.62494 27904 ft 393 kts 254°
2026-05-05 05:18 32.55442 -92.65406 27905 ft 393 kts 253°
2026-05-05 05:18 32.54288 -92.68320 27916 ft 393 kts 253°
2026-05-05 05:18 32.53118 -92.71268 27914 ft 392 kts 253°
2026-05-05 05:18 32.51952 -92.74208 27913 ft 395 kts 253°
2026-05-05 05:19 32.50789 -92.77135 27910 ft 393 kts 253°
2026-05-05 05:19 32.49633 -92.80039 27908 ft 390 kts 253°
2026-05-05 05:19 32.48479 -92.82941 27911 ft 394 kts 253°
2026-05-05 05:19 32.47366 -92.85735 27913 ft 393 kts 253°
2026-05-05 05:20 32.46196 -92.88671 27918 ft 391 kts 254°
2026-05-05 05:20 32.45261 -92.91628 27910 ft 382 kts 263°
2026-05-05 05:20 32.44832 -92.94720 27920 ft 375 kts 271°
2026-05-05 05:20 32.44636 -92.97774 27914 ft 375 kts 271°
2026-05-05 05:21 32.44422 -93.00746 27912 ft 376 kts 270°
2026-05-05 05:21 32.44201 -93.03685 27912 ft 377 kts 271°
2026-05-05 05:21 32.43965 -93.06775 27912 ft 375 kts 270°
2026-05-05 05:21 32.43728 -93.09854 27901 ft 376 kts 271°
2026-05-05 05:22 32.43501 -93.12791 27902 ft 376 kts 270°
2026-05-05 05:22 32.43261 -93.15887 27902 ft 375 kts 270°
2026-05-05 05:22 32.43022 -93.18944 27902 ft 375 kts 270°
2026-05-05 05:22 32.42782 -93.22016 27895 ft 375 kts 271°
2026-05-05 05:23 32.42541 -93.25096 27901 ft 376 kts 270°
2026-05-05 05:23 32.42310 -93.28027 27902 ft 377 kts 270°
2026-05-05 05:23 32.42065 -93.31127 27892 ft 377 kts 270°
2026-05-05 05:23 32.41821 -93.34216 27891 ft 375 kts 270°
2026-05-05 05:24 32.41581 -93.37243 27892 ft 375 kts 270°
2026-05-05 05:24 32.41336 -93.40323 27894 ft 377 kts 270°
2026-05-05 05:24 32.41128 -93.42922 27888 ft 378 kts 270°
2026-05-05 05:24 32.40886 -93.45945 27886 ft 375 kts 270°
2026-05-05 05:25 32.40653 -93.48846 27880 ft 376 kts 270°
2026-05-05 05:25 32.40406 -93.51916 27891 ft 378 kts 270°
2026-05-05 05:25 32.40155 -93.55019 27884 ft 377 kts 270°
2026-05-05 05:25 32.39908 -93.58076 27891 ft 378 kts 270°
2026-05-05 05:26 32.39656 -93.61176 27893 ft 380 kts 270°
2026-05-05 05:26 32.39401 -93.64296 27890 ft 378 kts 270°
2026-05-05 05:26 32.39149 -93.67372 27902 ft 377 kts 270°
2026-05-05 05:26 32.38897 -93.70451 27897 ft 379 kts 270°
2026-05-05 05:27 32.38640 -93.73572 27901 ft 378 kts 270°
2026-05-05 05:27 32.38386 -93.76652 27899 ft 376 kts 270°
2026-05-05 05:27 32.37873 -93.82841 27893 ft 379 kts 270°
2026-05-05 05:28 32.37614 -93.85941 27884 ft 378 kts 269°
2026-05-05 05:28 32.37355 -93.89046 27879 ft 378 kts 269°
2026-05-05 05:28 32.37096 -93.92131 27885 ft 376 kts 270°
2026-05-05 05:28 32.36839 -93.95199 27881 ft 377 kts 270°
2026-05-05 05:29 32.36578 -93.98302 27885 ft 378 kts 269°
2026-05-05 05:29 32.36314 -94.01427 27877 ft 378 kts 269°
2026-05-05 05:29 32.36056 -94.04469 27881 ft 378 kts 269°
2026-05-05 05:29 32.35790 -94.07586 27877 ft 377 kts 269°
2026-05-05 05:30 32.35527 -94.10669 27876 ft 377 kts 270°
2026-05-05 05:30 32.35267 -94.13724 27875 ft 376 kts 269°
2026-05-05 05:30 32.34998 -94.16848 27872 ft 377 kts 269°
2026-05-05 05:30 32.34734 -94.19918 27876 ft 377 kts 269°
2026-05-05 05:31 32.34468 -94.23004 27879 ft 376 kts 269°
2026-05-05 05:31 32.34205 -94.26041 27873 ft 376 kts 269°
2026-05-05 05:31 32.33938 -94.29121 27870 ft 378 kts 270°
2026-05-05 05:31 32.33671 -94.32188 27870 ft 378 kts 269°
2026-05-05 05:32 32.33400 -94.35294 27870 ft 375 kts 269°
2026-05-05 05:32 32.33131 -94.38373 27868 ft 377 kts 269°
2026-05-05 05:32 32.32863 -94.41432 27864 ft 378 kts 270°
2026-05-05 05:32 32.32587 -94.44564 27864 ft 377 kts 269°
2026-05-05 05:33 32.32317 -94.47614 27865 ft 378 kts 269°
2026-05-05 05:33 32.32041 -94.50736 27860 ft 377 kts 269°
2026-05-05 05:33 32.31767 -94.53822 27860 ft 377 kts 269°
2026-05-05 05:33 32.31495 -94.56887 27863 ft 375 kts 269°
2026-05-05 05:34 32.31222 -94.59940 27867 ft 378 kts 270°
2026-05-05 05:34 32.30946 -94.63027 27862 ft 378 kts 269°
2026-05-05 05:34 32.30664 -94.66157 27863 ft 377 kts 269°
2026-05-05 05:34 32.30388 -94.69234 27874 ft 380 kts 269°
2026-05-05 05:35 32.30108 -94.72335 27879 ft 379 kts 269°
2026-05-05 05:35 32.29828 -94.75427 27876 ft 377 kts 269°
2026-05-05 05:35 32.29549 -94.78505 27873 ft 378 kts 269°
2026-05-05 05:35 32.29270 -94.81574 27873 ft 379 kts 269°
2026-05-05 05:36 32.28986 -94.84690 27872 ft 379 kts 269°
2026-05-05 05:36 32.28702 -94.87782 27872 ft 379 kts 269°
2026-05-05 05:36 32.28422 -94.90846 27873 ft 378 kts 269°
2026-05-05 05:36 32.28134 -94.93972 27869 ft 378 kts 269°
2026-05-05 05:37 32.27852 -94.97034 27866 ft 379 kts 269°
2026-05-05 05:37 32.27564 -95.00142 27866 ft 379 kts 269°
2026-05-05 05:37 32.27246 -95.03210 27863 ft 380 kts 268°
2026-05-05 05:37 32.26917 -95.06300 27868 ft 380 kts 268°
2026-05-05 05:38 32.26585 -95.09400 27856 ft 378 kts 268°
2026-05-05 05:38 32.26253 -95.12505 27857 ft 378 kts 268°
2026-05-05 05:38 32.25921 -95.15614 27858 ft 379 kts 268°
2026-05-05 05:38 32.25589 -95.18701 27849 ft 379 kts 268°
2026-05-05 05:39 32.25263 -95.21799 27852 ft 379 kts 270°
2026-05-05 05:39 32.25237 -95.24854 27860 ft 376 kts 275°
2026-05-05 05:39 32.25326 -95.27957 27854 ft 376 kts 275°
2026-05-05 05:39 32.25410 -95.31031 27854 ft 374 kts 275°
2026-05-05 05:40 32.25492 -95.34109 27855 ft 373 kts 276°
2026-05-05 05:40 32.25573 -95.37176 27854 ft 375 kts 275°
2026-05-05 05:40 32.25651 -95.40230 27852 ft 375 kts 276°
2026-05-05 05:40 32.25730 -95.43282 27852 ft 375 kts 276°
2026-05-05 05:41 32.25809 -95.46362 27848 ft 373 kts 275°
2026-05-05 05:41 32.25886 -95.49435 27845 ft 374 kts 275°
2026-05-05 05:41 32.25963 -95.52518 27840 ft 374 kts 275°
2026-05-05 05:41 32.26038 -95.55574 27837 ft 376 kts 275°
2026-05-05 05:42 32.26114 -95.58683 27833 ft 375 kts 275°
2026-05-05 05:42 32.26189 -95.61757 27831 ft 375 kts 275°
2026-05-05 05:42 32.26263 -95.64841 27832 ft 376 kts 275°
2026-05-05 05:42 32.26336 -95.67913 27840 ft 375 kts 275°
2026-05-05 05:43 32.26408 -95.70985 27837 ft 371 kts 275°
2026-05-05 05:43 32.26477 -95.74000 27826 ft 362 kts 275°
2026-05-05 05:43 32.26544 -95.76969 27828 ft 361 kts 275°
2026-05-05 05:43 32.26609 -95.79908 27838 ft 360 kts 275°
2026-05-05 05:44 32.26674 -95.82878 27682 ft 364 kts 275°
2026-05-05 05:44 32.26738 -95.85851 27299 ft 361 kts 275°
2026-05-05 05:44 32.26801 -95.88826 26904 ft 359 kts 275°
2026-05-05 05:44 32.26863 -95.91758 26509 ft 357 kts 275°
2026-05-05 05:45 32.26926 -95.94687 26198 ft 355 kts 275°
2026-05-05 05:45 32.26991 -95.97586 25807 ft 355 kts 275°
2026-05-05 05:45 32.27054 -96.00506 25415 ft 353 kts 274°
2026-05-05 05:45 32.27117 -96.03407 25030 ft 352 kts 274°
2026-05-05 05:46 32.27178 -96.06253 24645 ft 352 kts 274°
2026-05-05 05:46 32.27239 -96.09128 24263 ft 351 kts 274°
2026-05-05 05:46 32.27300 -96.12020 23870 ft 350 kts 274°
2026-05-05 05:46 32.27358 -96.14885 23480 ft 347 kts 274°
2026-05-05 05:47 32.27417 -96.17738 23092 ft 347 kts 274°
2026-05-05 05:47 32.27474 -96.20560 22714 ft 346 kts 274°
2026-05-05 05:47 32.27531 -96.23408 22330 ft 345 kts 274°
2026-05-05 05:47 32.27587 -96.26227 21954 ft 342 kts 274°
2026-05-05 05:48 32.27641 -96.29005 21581 ft 340 kts 274°
2026-05-05 05:48 32.27934 -96.31766 21186 ft 337 kts 290°
2026-05-05 05:48 32.29192 -96.34092 20876 ft 339 kts 310°
2026-05-05 05:48 32.30833 -96.36077 20480 ft 340 kts 311°
2026-05-05 05:49 32.32511 -96.38040 20091 ft 338 kts 311°
2026-05-05 05:49 32.34187 -96.39979 19712 ft 336 kts 312°
2026-05-05 05:49 32.35849 -96.41892 19338 ft 332 kts 312°
2026-05-05 05:49 32.37472 -96.43760 18973 ft 322 kts 312°
2026-05-05 05:50 32.39053 -96.45578 18621 ft 316 kts 312°
2026-05-05 05:50 32.40642 -96.47407 18278 ft 316 kts 311°
2026-05-05 05:50 32.42207 -96.49209 17928 ft 316 kts 312°
2026-05-05 05:50 32.43728 -96.50960 17589 ft 315 kts 311°
2026-05-05 05:51 32.45289 -96.52759 17234 ft 315 kts 311°
2026-05-05 05:51 32.46869 -96.54580 16884 ft 313 kts 311°
2026-05-05 05:51 32.48428 -96.56377 16716 ft 311 kts 311°
2026-05-05 05:51 32.49977 -96.58154 16464 ft 314 kts 312°
2026-05-05 05:52 32.51547 -96.59951 16133 ft 312 kts 312°
2026-05-05 05:52 32.53097 -96.61726 15793 ft 311 kts 312°
2026-05-05 05:52 32.54657 -96.63515 15449 ft 312 kts 312°
2026-05-05 05:52 32.56217 -96.65305 15103 ft 312 kts 312°
2026-05-05 05:53 32.57764 -96.67053 14756 ft 300 kts 312°
2026-05-05 05:53 32.59249 -96.68725 14434 ft 287 kts 312°
2026-05-05 05:53 32.60661 -96.70316 14120 ft 276 kts 312°
2026-05-05 05:53 32.62028 -96.71858 13830 ft 269 kts 311°
2026-05-05 05:54 32.63393 -96.73399 13547 ft 272 kts 312°
2026-05-05 05:54 32.64784 -96.74970 13246 ft 275 kts 312°
2026-05-05 05:54 32.66150 -96.76513 13057 ft 273 kts 312°
2026-05-05 05:54 32.67531 -96.78079 13077 ft 274 kts 312°
2026-05-05 05:55 32.68906 -96.79638 13076 ft 269 kts 312°
2026-05-05 05:55 32.70219 -96.81124 13032 ft 250 kts 312°
2026-05-05 05:55 32.71440 -96.82510 12978 ft 236 kts 311°
2026-05-05 05:55 32.72609 -96.83839 12964 ft 234 kts 311°
2026-05-05 05:56 32.73800 -96.85194 12972 ft 237 kts 311°
2026-05-05 05:56 32.75002 -96.86562 12895 ft 240 kts 311°
2026-05-05 05:56 32.76204 -96.87928 12669 ft 242 kts 311°
2026-05-05 05:56 32.77422 -96.89313 12419 ft 239 kts 311°
2026-05-05 05:57 32.78610 -96.90655 12155 ft 237 kts 315°
2026-05-05 05:57 32.80159 -96.91419 11990 ft 250 kts 350°
2026-05-05 05:57 32.81899 -96.91455 12060 ft 252 kts 353°
2026-05-05 05:57 32.83675 -96.91458 11875 ft 257 kts 353°
2026-05-05 05:58 32.85472 -96.91454 11615 ft 256 kts 353°
2026-05-05 05:58 32.87243 -96.91444 11334 ft 254 kts 353°
2026-05-05 05:58 32.89005 -96.91434 11046 ft 251 kts 353°
2026-05-05 05:58 32.90753 -96.91424 10769 ft 249 kts 353°
2026-05-05 05:59 32.92480 -96.91413 10497 ft 248 kts 353°
2026-05-05 05:59 32.94189 -96.91402 10228 ft 246 kts 352°
2026-05-05 05:59 32.95908 -96.91393 9949 ft 245 kts 352°
2026-05-05 05:59 32.97614 -96.91382 9674 ft 243 kts 352°
2026-05-05 06:00 32.99303 -96.91370 9407 ft 241 kts 352°
2026-05-05 06:00 33.00983 -96.91361 9145 ft 243 kts 352°
2026-05-05 06:00 33.02700 -96.91350 8916 ft 241 kts 352°
2026-05-05 06:00 33.04366 -96.91338 8934 ft 241 kts 352°
2026-05-05 06:01 33.06067 -96.91328 8939 ft 243 kts 352°
2026-05-05 06:01 33.07749 -96.91317 8940 ft 243 kts 352°
2026-05-05 06:01 33.09453 -96.91306 8819 ft 245 kts 353°
2026-05-05 06:01 33.11158 -96.91296 8585 ft 246 kts 353°
2026-05-05 06:02 33.12867 -96.91284 8326 ft 245 kts 352°
2026-05-05 06:02 33.14582 -96.91273 8057 ft 245 kts 353°
2026-05-05 06:02 33.16283 -96.91262 7789 ft 245 kts 352°
2026-05-05 06:02 33.17944 -96.91479 7515 ft 233 kts 326°
2026-05-05 06:03 33.19054 -96.92727 7348 ft 216 kts 290°
2026-05-05 06:03 33.19399 -96.94445 6951 ft 215 kts 274°
2026-05-05 06:03 33.19551 -96.96205 6637 ft 211 kts 272°
2026-05-05 06:03 33.19649 -96.97930 6370 ft 207 kts 271°
2026-05-05 06:04 33.19718 -96.99639 6140 ft 205 kts 270°
2026-05-05 06:04 33.19772 -97.01366 5916 ft 206 kts 269°
2026-05-05 06:04 33.19808 -97.03067 5691 ft 205 kts 263°
2026-05-05 06:04 33.19255 -97.04549 5503 ft 204 kts 222°
2026-05-05 06:05 33.17915 -97.05186 5232 ft 217 kts 191°
2026-05-05 06:05 33.16404 -97.05261 4928 ft 215 kts 189°
2026-05-05 06:05 33.14931 -97.05322 4639 ft 209 kts 189°
2026-05-05 06:05 33.13500 -97.05357 4404 ft 201 kts 187°
2026-05-05 06:06 33.12097 -97.05359 4104 ft 195 kts 187°
2026-05-05 06:06 33.10762 -97.05366 3814 ft 190 kts 187°
2026-05-05 06:06 33.09466 -97.05373 3522 ft 185 kts 187°
2026-05-05 06:06 33.08197 -97.05378 3176 ft 178 kts 187°
2026-05-05 06:07 33.07057 -97.05379 3033 ft 145 kts 188°
2026-05-05 06:07 33.06094 -97.05385 2962 ft 135 kts 188°
2026-05-05 06:07 33.05142 -97.05393 2992 ft 137 kts 188°
2026-05-05 06:07 33.04189 -97.05400 2952 ft 141 kts 188°
2026-05-05 06:08 33.03196 -97.05405 2792 ft 142 kts 186°
2026-05-05 06:08 33.02218 -97.05410 2625 ft 138 kts 186°
2026-05-05 06:08 33.01241 -97.05415 2447 ft 139 kts 186°
2026-05-05 06:08 33.00317 -97.05418 2323 ft 125 kts 186°
2026-05-05 06:09 32.99473 -97.05423 2110 ft 116 kts 184°
2026-05-05 06:09 32.98682 -97.05428 1969 ft 111 kts 184°
2026-05-05 06:09 32.97901 -97.05433 1835 ft 113 kts 184°
2026-05-05 06:09 32.97129 -97.05437 1647 ft 110 kts 183°
2026-05-05 06:10 32.96340 -97.05444 1506 ft 117 kts 181°
2026-05-05 06:10 32.95520 -97.05450 1381 ft 114 kts 181°
2026-05-05 06:10 32.94711 -97.05435 1275 ft 114 kts 182°
2026-05-05 06:10 32.93899 -97.05450 1110 ft 120 kts 183°
2026-05-05 06:11 32.93065 -97.05460 955 ft 116 kts 181°
2026-05-05 06:11 32.92216 -97.05455 778 ft 118 kts 181°
2026-05-05 06:11 32.91391 -97.05465 634 ft 125 kts 180°
2026-05-05 06:11 32.90587 -97.05469 614 ft 101 kts 180°
2026-05-05 06:12 32.90050 -97.05457 613 ft 51 kts 157°
2026-05-05 06:12 32.89780 -97.05292 607 ft 25 kts 141°
2026-05-05 06:12 32.89758 -97.05139 606 ft 22 kts 88°
2026-05-05 06:12 32.89760 -97.04932 603 ft 18 kts 92°
2026-05-05 06:13 32.89760 -97.04908 603 ft 3 kts 85°
2026-05-05 06:13 32.89756 -97.04821 601 ft 18 kts 95°
2026-05-05 06:13 32.89841 -97.04765 601 ft 17 kts 359°
2026-05-05 06:13 32.89970 -97.04765 604 ft 18 kts
2026-05-05 06:14 32.90081 -97.04750 604 ft 11 kts 65°
2026-05-05 06:14 32.90083 -97.04650 602 ft 12 kts 91°
2026-05-05 06:14 32.90083 -97.04538 600 ft 14 kts 90°
2026-05-05 06:14 32.90082 -97.04411 596 ft 16 kts 90°
2026-05-05 06:15 32.90085 -97.04313 594 ft 1 kts 94°
2026-05-05 06:15 32.90085 -97.04304 594 ft 2 kts 92°
2026-05-05 06:15 32.90084 -97.04273 593 ft 5 kts 91°
2026-05-05 06:16 32.90084 -97.04243 593 ft 0 kts 90°
2026-05-05 06:16 32.90085 -97.04243 593 ft 0 kts 91°